| time (UTC) | temp F | wind direction | speed MPH | gust MPH | rain 1hr in | rain 24hr in | rain mn in | humidity % | barometer mb |
| 20260508041238 | 45 | 320 | 0.0 | 0.0 | 0.00 | 0.01 | 0.01 | 89 | 1009.9 |
| 20260508040734 | 46 | 320 | 0.0 | 0.0 | 0.00 | 0.01 | 0.01 | 89 | 1009.8 |
| 20260508040232 | 46 | 320 | 0.0 | 0.0 | 0.00 | 0.01 | 0.01 | 88 | 1009.8 |
| 20260508035729 | 46 | 320 | 0.0 | 0.0 | 0.00 | 0.01 | 0.01 | 88 | 1009.8 |
| 20260508035226 | 46 | 320 | 0.0 | 0.0 | 0.00 | 0.01 | 0.01 | 87 | 1009.9 |
| 20260508034723 | 46 | 320 | 0.0 | 0.0 | 0.00 | 0.01 | 0.01 | 86 | 1009.7 |
| 20260508034220 | 46 | 320 | 1.0 | 1.0 | 0.00 | 0.01 | 0.01 | 87 | 1009.8 |
| 20260508033717 | 47 | 320 | 0.0 | 0.0 | 0.00 | 0.01 | 0.01 | 86 | 1009.7 |
| 20260508033216 | 48 | 320 | 0.0 | 1.0 | 0.00 | 0.01 | 0.01 | 86 | 1009.7 |
| 20260508032713 | 48 | 320 | 0.0 | 0.0 | 0.00 | 0.01 | 0.01 | 86 | 1009.7 |
| 20260508032209 | 48 | 320 | 0.0 | 0.0 | 0.00 | 0.01 | 0.01 | 86 | 1009.8 |
| 20260508031707 | 48 | 320 | 0.0 | 0.0 | 0.00 | 0.01 | 0.01 | 85 | 1009.7 |
| 20260508031203 | 48 | 320 | 0.0 | 0.0 | 0.00 | 0.01 | 0.01 | 86 | 1009.6 |
| 20260508030659 | 48 | 320 | 0.0 | 0.0 | 0.00 | 0.01 | 0.01 | 85 | 1009.5 |
| 20260508030157 | 48 | 320 | 0.0 | 0.0 | 0.00 | 0.01 | 0.01 | 85 | 1009.7 |
| 20260508025653 | 49 | 320 | 0.0 | 0.0 | 0.00 | 0.01 | 0.01 | 83 | 1009.6 |
| 20260508025150 | 49 | 320 | 0.0 | 0.0 | 0.00 | 0.01 | 0.01 | 83 | 1009.4 |
| 20260508024646 | 49 | 320 | 0.0 | 0.0 | 0.00 | 0.01 | 0.01 | 81 | 1009.5 |
| 20260508024143 | 50 | 320 | 0.0 | 0.0 | 0.00 | 0.01 | 0.01 | 82 | 1009.4 |
| 20260508023639 | 50 | 320 | 0.0 | 0.0 | 0.00 | 0.01 | 0.01 | 81 | 1009.2 |
| 20260508023137 | 51 | 320 | 0.0 | 0.0 | 0.00 | 0.01 | 0.01 | 80 | 1009.4 |
| 20260508022633 | 51 | 320 | 0.0 | 0.0 | 0.00 | 0.01 | 0.01 | 75 | 1009.3 |
| 20260508022130 | 51 | 320 | 0.0 | 0.0 | 0.00 | 0.01 | 0.01 | 76 | 1009.3 |
| 20260508021626 | 52 | 320 | 0.0 | 0.0 | 0.00 | 0.01 | 0.01 | 78 | 1009.2 |
| 20260508021121 | 52 | 320 | 0.0 | 0.0 | 0.00 | 0.01 | 0.01 | 78 | 1009.0 |
| 20260508020620 | 52 | 320 | 0.0 | 0.0 | 0.00 | 0.01 | 0.01 | 77 | 1009.0 |
| 20260508020117 | 53 | 320 | 0.0 | 0.0 | 0.00 | 0.01 | 0.01 | 75 | 1009.0 |
| 20260508015615 | 53 | 320 | 0.0 | 0.0 | 0.00 | 0.01 | 0.01 | 74 | 1008.7 |
| 20260508015111 | 54 | 320 | 0.0 | 0.0 | 0.00 | 0.01 | 0.01 | 70 | 1008.6 |
| 20260508014607 | 55 | 320 | 0.0 | 0.0 | 0.00 | 0.01 | 0.01 | 71 | 1008.5 |
| 20260508014104 | 56 | 320 | 0.0 | 0.0 | 0.00 | 0.01 | 0.01 | 67 | 1008.5 |
| 20260508013600 | 57 | 320 | 0.0 | 0.0 | 0.00 | 0.01 | 0.01 | 61 | 1008.5 |
| 20260508013057 | 58 | 320 | 0.0 | 0.0 | 0.00 | 0.01 | 0.01 | 58 | 1008.3 |
| 20260508012555 | 59 | 320 | 0.0 | 0.0 | 0.00 | 0.01 | 0.01 | 52 | 1008.3 |
| 20260508012052 | 60 | 320 | 0.0 | 0.0 | 0.00 | 0.01 | 0.01 | 47 | 1008.4 |
| 20260508011550 | 59 | 320 | 0.0 | 0.0 | 0.00 | 0.01 | 0.01 | 52 | 1008.2 |
| 20260508011047 | 60 | 320 | 0.0 | 0.0 | 0.00 | 0.01 | 0.01 | 59 | 1008.1 |
| 20260508010544 | 61 | 320 | 0.0 | 0.0 | 0.00 | 0.01 | 0.01 | 51 | 1008.2 |
| 20260508010041 | 61 | 321 | 0.0 | 0.0 | 0.00 | 0.01 | 0.01 | 47 | 1008.0 |
| 20260508005538 | 62 | 321 | 0.0 | 0.0 | 0.00 | 0.01 | 0.01 | 45 | 1008.1 |
| 20260508005034 | 62 | 321 | 0.0 | 0.0 | 0.00 | 0.01 | 0.01 | 45 | 1007.9 |
| 20260508004530 | 63 | 321 | 0.0 | 0.0 | 0.00 | 0.01 | 0.01 | 43 | 1007.9 |
| 20260508004027 | 63 | 321 | 0.0 | 0.0 | 0.00 | 0.01 | 0.01 | 41 | 1007.9 |
| 20260508003524 | 63 | 321 | 0.0 | 0.0 | 0.00 | 0.01 | 0.01 | 44 | 1007.9 |
| 20260508003022 | 64 | 321 | 0.0 | 0.0 | 0.00 | 0.01 | 0.01 | 43 | 1007.8 |
| 20260508002517 | 64 | 321 | 0.0 | 0.0 | 0.00 | 0.01 | 0.01 | 40 | 1007.7 |
| 20260508002015 | 64 | 321 | 0.0 | 0.0 | 0.00 | 0.01 | 0.01 | 44 | 1007.7 |
| 20260508001510 | 64 | 321 | 0.0 | 0.0 | 0.00 | 0.01 | 0.01 | 41 | 1007.9 |
| 20260508001007 | 64 | 321 | 0.0 | 1.0 | 0.00 | 0.01 | 0.01 | 38 | 1007.6 |
| 20260508000503 | 65 | 320 | 0.0 | 0.0 | 0.00 | 0.01 | 0.01 | 40 | 1007.7 |
| 20260508000000 | 66 | 320 | 0.0 | 0.0 | 0.00 | 0.01 | 0.01 | 39 | 1007.8 |
| 20260507235456 | 68 | 318 | 0.0 | 1.0 | 0.00 | 0.01 | 0.01 | 36 | 1007.8 |
| 20260507234954 | 69 | 319 | 0.0 | 1.0 | 0.00 | 0.01 | 0.01 | 37 | 1007.7 |
| 20260507234450 | 71 | 317 | 1.0 | 1.0 | 0.00 | 0.01 | 0.01 | 36 | 1007.7 |
| 20260507233949 | 69 | 318 | 0.0 | 0.0 | 0.00 | 0.01 | 0.01 | 39 | 1007.8 |
| 20260507233444 | 68 | 318 | 0.0 | 0.0 | 0.00 | 0.01 | 0.01 | 37 | 1007.9 |
| 20260507232943 | 68 | 318 | 0.0 | 0.0 | 0.00 | 0.01 | 0.01 | 40 | 1007.7 |
| 20260507232438 | 69 | 315 | 0.0 | 0.0 | 0.00 | 0.01 | 0.01 | 33 | 1007.9 |
| 20260507231936 | 69 | 315 | 1.0 | 1.0 | 0.00 | 0.01 | 0.01 | 38 | 1007.7 |
| 20260507231432 | 69 | 316 | 2.0 | 2.0 | 0.00 | 0.01 | 0.01 | 33 | 1007.7 |
| 20260507230929 | 68 | 312 | 0.0 | 1.0 | 0.00 | 0.01 | 0.01 | 38 | 1007.7 |
| 20260507230426 | 68 | 307 | 0.0 | 0.0 | 0.00 | 0.01 | 0.01 | 36 | 1007.8 |
| 20260507225926 | 69 | 316 | 1.0 | 1.0 | 0.00 | 0.01 | 0.01 | 33 | 1007.4 |
| 20260507225423 | 70 | 312 | 1.0 | 1.0 | 0.00 | 0.01 | 0.01 | 34 | 1007.7 |
| 20260507224919 | 69 | 314 | 1.0 | 1.0 | 0.00 | 0.01 | 0.01 | 33 | 1007.8 |
| 20260507224415 | 68 | 312 | 0.0 | 0.0 | 0.00 | 0.01 | 0.01 | 37 | 1007.9 |
| 20260507223912 | 68 | 308 | 1.0 | 1.0 | 0.00 | 0.01 | 0.01 | 36 | 1007.9 |
| 20260507223408 | 69 | 311 | 0.0 | 1.0 | 0.00 | 0.01 | 0.01 | 36 | 1008.0 |
| 20260507222905 | 69 | 305 | 1.0 | 1.0 | 0.00 | 0.01 | 0.01 | 35 | 1008.2 |
| 20260507222402 | 70 | 316 | 1.0 | 1.0 | 0.00 | 0.01 | 0.01 | 35 | 1007.9 |
| 20260507221859 | 70 | 311 | 1.0 | 1.0 | 0.00 | 0.01 | 0.01 | 38 | 1008.0 |
| 20260507221355 | 70 | 313 | 1.0 | 1.0 | 0.00 | 0.01 | 0.01 | 36 | 1008.0 |
| 20260507220851 | 70 | 306 | 1.0 | 2.0 | 0.00 | 0.01 | 0.01 | 32 | 1007.8 |
| 20260507220349 | 71 | 309 | 1.0 | 2.0 | 0.00 | 0.01 | 0.01 | 34 | 1007.9 |
| 20260507215846 | 71 | 301 | 1.0 | 1.0 | 0.00 | 0.01 | 0.01 | 33 | 1007.9 |
| 20260507215342 | 70 | 277 | 1.0 | 2.0 | 0.00 | 0.01 | 0.01 | 34 | 1007.9 |
| 20260507214840 | 69 | 312 | 0.0 | 0.0 | 0.00 | 0.01 | 0.01 | 34 | 1007.9 |
| 20260507214338 | 70 | 308 | 1.0 | 1.0 | 0.00 | 0.01 | 0.01 | 36 | 1008.0 |
| 20260507213832 | 69 | 299 | 1.0 | 2.0 | 0.00 | 0.01 | 0.01 | 34 | 1008.1 |
| 20260507213329 | 69 | 316 | 1.0 | 1.0 | 0.00 | 0.01 | 0.01 | 38 | 1008.1 |
| 20260507212826 | 69 | 319 | 1.0 | 1.0 | 0.00 | 0.01 | 0.01 | 39 | 1008.3 |
| 20260507212322 | 69 | 312 | 0.0 | 1.0 | 0.00 | 0.01 | 0.01 | 35 | 1008.2 |
| 20260507211818 | 69 | 303 | 0.0 | 0.0 | 0.00 | 0.01 | 0.01 | 37 | 1008.2 |
| 20260507211315 | 67 | 303 | 1.0 | 1.0 | 0.00 | 0.01 | 0.01 | 35 | 1008.4 |
| 20260507210812 | 66 | 293 | 0.0 | 0.0 | 0.00 | 0.01 | 0.01 | 34 | 1008.4 |
| 20260507210309 | 68 | 271 | 2.0 | 2.0 | 0.00 | 0.01 | 0.01 | 35 | 1008.3 |
| 20260507205805 | 68 | 321 | 3.0 | 5.0 | 0.00 | 0.01 | 0.01 | 33 | 1008.4 |
| 20260507205306 | 66 | 297 | 0.0 | 1.0 | 0.00 | 0.01 | 0.01 | 36 | 1008.6 |
| 20260507204758 | 66 | 198 | 3.0 | 3.0 | 0.00 | 0.01 | 0.01 | 35 | 1008.7 |
| 20260507204256 | 67 | 303 | 2.0 | 2.0 | 0.00 | 0.01 | 0.01 | 38 | 1008.7 |
| 20260507203754 | 68 | 289 | 2.0 | 2.0 | 0.00 | 0.01 | 0.01 | 35 | 1008.8 |
| 20260507203252 | 66 | 216 | 4.0 | 6.0 | 0.00 | 0.01 | 0.01 | 38 | 1008.7 |
| 20260507202748 | 67 | 255 | 1.0 | 2.0 | 0.00 | 0.01 | 0.01 | 35 | 1008.7 |
| 20260507202243 | 68 | 254 | 3.0 | 3.0 | 0.00 | 0.01 | 0.01 | 38 | 1008.6 |
| 20260507201738 | 67 | 309 | 0.0 | 1.0 | 0.00 | 0.01 | 0.01 | 39 | 1008.9 |
| 20260507201235 | 67 | 267 | 2.0 | 2.0 | 0.00 | 0.01 | 0.01 | 37 | 1009.0 |
| 20260507200732 | 68 | 313 | 3.0 | 3.0 | 0.00 | 0.01 | 0.01 | 36 | 1009.0 |
| 20260507200228 | 67 | 342 | 0.0 | 0.0 | 0.00 | 0.01 | 0.01 | 38 | 1009.0 |
| 20260507195724 | 68 | 229 | 5.0 | 7.0 | 0.00 | 0.01 | 0.01 | 35 | 1009.0 |
| 20260507195222 | 68 | 256 | 3.0 | 3.0 | 0.00 | 0.01 | 0.01 | 36 | 1009.2 |
| 20260507194719 | 67 | 274 | 2.0 | 2.0 | 0.00 | 0.01 | 0.01 | 40 | 1009.4 |
| 20260507194215 | 67 | 249 | 1.0 | 1.0 | 0.00 | 0.01 | 0.01 | 37 | 1009.5 |
| 20260507193712 | 67 | 256 | 3.0 | 3.0 | 0.00 | 0.01 | 0.01 | 38 | 1009.4 |
| 20260507193209 | 67 | 227 | 5.0 | 7.0 | 0.00 | 0.01 | 0.01 | 37 | 1009.5 |
| 20260507192704 | 66 | 265 | 3.0 | 5.0 | 0.00 | 0.01 | 0.01 | 42 | 1009.7 |
| 20260507192202 | 67 | 282 | 2.0 | 3.0 | 0.00 | 0.01 | 0.01 | 39 | 1009.7 |
| 20260507191657 | 66 | 282 | 4.0 | 5.0 | 0.00 | 0.01 | 0.01 | 43 | 1009.6 |
| 20260507191154 | 66 | 231 | 3.0 | 3.0 | 0.00 | 0.01 | 0.01 | 40 | 1009.7 |
| 20260507190651 | 66 | 313 | 3.0 | 3.0 | 0.00 | 0.01 | 0.01 | 40 | 1009.7 |
| 20260507190150 | 65 | 291 | 2.0 | 2.0 | 0.00 | 0.01 | 0.01 | 41 | 1009.8 |
| 20260507185648 | 65 | 293 | 0.0 | 0.0 | 0.00 | 0.01 | 0.01 | 42 | 1009.9 |
| 20260507185144 | 64 | 238 | 3.0 | 3.0 | 0.00 | 0.01 | 0.01 | 41 | 1009.7 |
| 20260507184642 | 65 | 247 | 5.0 | 5.0 | 0.00 | 0.01 | 0.01 | 41 | 1009.8 |
| 20260507184140 | 65 | 221 | 5.0 | 6.0 | 0.00 | 0.01 | 0.01 | 43 | 1009.7 |
| 20260507183636 | 66 | 295 | 2.0 | 2.0 | 0.00 | 0.01 | 0.01 | 44 | 1009.8 |
| 20260507183133 | 65 | 265 | 3.0 | 3.0 | 0.00 | 0.01 | 0.01 | 44 | 1009.8 |
| 20260507182630 | 64 | 229 | 5.0 | 6.0 | 0.00 | 0.01 | 0.01 | 43 | 1010.1 |
| 20260507182126 | 64 | 291 | 1.0 | 2.0 | 0.00 | 0.01 | 0.01 | 47 | 1010.2 |
| 20260507181622 | 64 | 298 | 1.0 | 2.0 | 0.00 | 0.01 | 0.01 | 44 | 1010.3 |
| 20260507181118 | 63 | 281 | 2.0 | 2.0 | 0.00 | 0.01 | 0.01 | 48 | 1010.3 |
| 20260507180615 | 63 | 243 | 2.0 | 2.0 | 0.00 | 0.01 | 0.01 | 45 | 1010.4 |
| 20260507180113 | 62 | 313 | 2.0 | 3.0 | 0.00 | 0.01 | 0.01 | 41 | 1010.7 |
| 20260507175608 | 63 | 309 | 4.0 | 5.0 | 0.00 | 0.01 | 0.01 | 40 | 1010.7 |
| 20260507175106 | 62 | 297 | 4.0 | 5.0 | 0.00 | 0.01 | 0.01 | 42 | 1010.7 |
| 20260507174603 | 62 | 288 | 3.0 | 3.0 | 0.00 | 0.01 | 0.01 | 49 | 1010.7 |
| 20260507174101 | 61 | 232 | 3.0 | 5.0 | 0.00 | 0.01 | 0.01 | 51 | 1010.9 |
| 20260507173557 | 62 | 265 | 1.0 | 2.0 | 0.00 | 0.01 | 0.01 | 50 | 1011.3 |
| 20260507173055 | 60 | 259 | 2.0 | 3.0 | 0.00 | 0.01 | 0.01 | 52 | 1011.0 |
| 20260507172550 | 60 | 204 | 2.0 | 5.0 | 0.00 | 0.01 | 0.01 | 57 | 1011.3 |
| 20260507172048 | 60 | 210 | 7.0 | 9.0 | 0.00 | 0.01 | 0.01 | 56 | 1011.2 |
| 20260507171543 | 60 | 241 | 4.0 | 5.0 | 0.00 | 0.01 | 0.01 | 57 | 1011.4 |
| 20260507171040 | 60 | 236 | 3.0 | 5.0 | 0.00 | 0.01 | 0.01 | 60 | 1011.4 |
| 20260507170537 | 59 | 216 | 4.0 | 5.0 | 0.00 | 0.01 | 0.01 | 62 | 1011.4 |
| 20260507170034 | 58 | 284 | 2.0 | 3.0 | 0.00 | 0.01 | 0.01 | 62 | 1011.6 |
| 20260507165529 | 57 | 225 | 4.0 | 8.0 | 0.00 | 0.01 | 0.01 | 62 | 1011.8 |
| 20260507165026 | 57 | 202 | 3.0 | 3.0 | 0.00 | 0.01 | 0.01 | 62 | 1011.8 |
| 20260507164522 | 57 | 257 | 3.0 | 3.0 | 0.00 | 0.01 | 0.01 | 62 | 1011.9 |
| 20260507164020 | 57 | 208 | 3.0 | 5.0 | 0.00 | 0.01 | 0.01 | 64 | 1011.8 |
| 20260507163517 | 56 | 193 | 5.0 | 6.0 | 0.00 | 0.01 | 0.01 | 65 | 1012.0 |
| 20260507163015 | 56 | 263 | 1.0 | 2.0 | 0.00 | 0.01 | 0.01 | 65 | 1012.2 |
| 20260507162509 | 55 | 213 | 2.0 | 2.0 | 0.00 | 0.01 | 0.01 | 65 | 1011.9 |
| 20260507162006 | 54 | 227 | 1.0 | 1.0 | 0.00 | 0.01 | 0.01 | 68 | 1012.0 |
| 20260507161503 | 54 | 207 | 4.0 | 5.0 | 0.00 | 0.01 | 0.01 | 66 | 1011.8 |
| 20260507161000 | 53 | 282 | 0.0 | 1.0 | 0.00 | 0.01 | 0.01 | 71 | 1012.0 |
| 20260507160455 | 53 | 240 | 2.0 | 2.0 | 0.00 | 0.01 | 0.01 | 67 | 1011.9 |
| 20260507155951 | 53 | 284 | 2.0 | 2.0 | 0.00 | 0.01 | 0.01 | 71 | 1012.0 |
| 20260507155447 | 53 | 294 | 1.0 | 1.0 | 0.00 | 0.01 | 0.01 | 72 | 1012.1 |
| 20260507154945 | 53 | 296 | 1.0 | 2.0 | 0.00 | 0.01 | 0.01 | 68 | 1012.3 |
| 20260507154441 | 53 | 279 | 1.0 | 1.0 | 0.00 | 0.01 | 0.01 | 70 | 1011.8 |
| 20260507153938 | 51 | 242 | 3.0 | 3.0 | 0.00 | 0.01 | 0.01 | 71 | 1012.0 |
| 20260507153435 | 51 | 305 | 1.0 | 1.0 | 0.00 | 0.01 | 0.01 | 72 | 1012.0 |
| 20260507152931 | 52 | 305 | 1.0 | 1.0 | 0.00 | 0.01 | 0.01 | 74 | 1012.4 |
| 20260507152428 | 51 | 303 | 2.0 | 3.0 | 0.00 | 0.01 | 0.01 | 75 | 1012.3 |
| 20260507151924 | 51 | 300 | 1.0 | 1.0 | 0.00 | 0.01 | 0.01 | 75 | 1012.2 |
| 20260507151420 | 50 | 300 | 0.0 | 0.0 | 0.00 | 0.01 | 0.01 | 76 | 1011.5 |
| 20260507150917 | 50 | 288 | 1.0 | 1.0 | 0.00 | 0.01 | 0.01 | 80 | 1011.8 |
| 20260507150414 | 50 | 293 | 1.0 | 2.0 | 0.00 | 0.01 | 0.01 | 79 | 1011.8 |
| 20260507145911 | 50 | 280 | 1.0 | 1.0 | 0.00 | 0.01 | 0.01 | 77 | 1012.1 |
| 20260507145406 | 50 | 243 | 1.0 | 1.0 | 0.00 | 0.01 | 0.01 | 75 | 1012.0 |
| 20260507144904 | 50 | 287 | 2.0 | 2.0 | 0.00 | 0.01 | 0.01 | 75 | 1012.2 |
| 20260507144401 | 50 | 274 | 1.0 | 1.0 | 0.00 | 0.01 | 0.01 | 74 | 1012.4 |
| 20260507143857 | 50 | 254 | 3.0 | 3.0 | 0.00 | 0.01 | 0.01 | 76 | 1012.4 |
| 20260507143354 | 50 | 291 | 1.0 | 1.0 | 0.00 | 0.01 | 0.01 | 78 | 1012.4 |
| 20260507142851 | 50 | 275 | 1.0 | 1.0 | 0.00 | 0.01 | 0.01 | 78 | 1012.6 |
| 20260507142347 | 49 | 263 | 1.0 | 1.0 | 0.00 | 0.01 | 0.01 | 79 | 1012.6 |
| 20260507141844 | 48 | 307 | 1.0 | 1.0 | 0.00 | 0.01 | 0.01 | 85 | 1012.8 |
| 20260507141341 | 47 | 306 | 1.0 | 1.0 | 0.00 | 0.01 | 0.01 | 82 | 1012.7 |
| 20260507140837 | 46 | 312 | 1.0 | 1.0 | 0.00 | 0.01 | 0.01 | 86 | 1012.7 |
| 20260507140334 | 45 | 313 | 0.0 | 1.0 | 0.00 | 0.01 | 0.01 | 89 | 1012.6 |
| 20260507135832 | 45 | 313 | 0.0 | 0.0 | 0.00 | 0.01 | 0.01 | 90 | 1012.6 |
| 20260507135329 | 45 | 313 | 1.0 | 1.0 | 0.05 | 0.01 | 0.01 | 90 | 1012.6 |
| 20260507134826 | 45 | 313 | 0.0 | 0.0 | 0.05 | 0.01 | 0.01 | 86 | 1012.7 |
| 20260507134322 | 45 | 312 | 0.0 | 1.0 | 0.00 | 0.00 | 0.00 | 82 | 1012.9 |
| 20260507133818 | 45 | 311 | 1.0 | 1.0 | 0.00 | 0.00 | 0.00 | 84 | 1013.3 |
| 20260507133314 | 45 | 311 | 0.0 | 0.0 | 0.00 | 0.00 | 0.00 | 82 | 1013.4 |
| 20260507132812 | 45 | 309 | 1.0 | 1.0 | 0.00 | 0.00 | 0.00 | 81 | 1013.2 |
| 20260507132308 | 45 | 306 | 1.0 | 1.0 | 0.00 | 0.00 | 0.00 | 80 | 1013.3 |
| 20260507131806 | 45 | 306 | 2.0 | 2.0 | 0.00 | 0.00 | 0.00 | 80 | 1013.3 |
| 20260507131302 | 46 | 304 | 1.0 | 1.0 | 0.00 | 0.00 | 0.00 | 79 | 1012.6 |
| 20260507130759 | 45 | 303 | 0.0 | 0.0 | 0.00 | 0.00 | 0.00 | 75 | 1012.5 |
| 20260507130257 | 45 | 300 | 1.0 | 1.0 | 0.00 | 0.00 | 0.00 | 75 | 1012.5 |
| 20260507125755 | 45 | 296 | 1.0 | 1.0 | 0.00 | 0.00 | 0.00 | 75 | 1012.5 |
| 20260507125252 | 45 | 283 | 1.0 | 1.0 | 0.00 | 0.00 | 0.00 | 73 | 1012.2 |
| 20260507124749 | 45 | 296 | 2.0 | 2.0 | 0.00 | 0.00 | 0.00 | 73 | 1012.2 |
| 20260507124246 | 45 | 295 | 0.0 | 0.0 | 0.00 | 0.00 | 0.00 | 72 | 1012.2 |
| 20260507123744 | 45 | 282 | 1.0 | 1.0 | 0.00 | 0.00 | 0.00 | 71 | 1012.3 |
| 20260507123242 | 44 | 297 | 0.0 | 0.0 | 0.00 | 0.00 | 0.00 | 71 | 1012.1 |
| 20260507122737 | 44 | 297 | 2.0 | 3.0 | 0.00 | 0.00 | 0.00 | 70 | 1012.3 |
| 20260507122233 | 44 | 294 | 1.0 | 1.0 | 0.00 | 0.00 | 0.00 | 70 | 1012.2 |
| 20260507121728 | 44 | 292 | 0.0 | 1.0 | 0.00 | 0.00 | 0.00 | 69 | 1012.1 |
| 20260507121224 | 43 | 294 | 1.0 | 1.0 | 0.00 | 0.00 | 0.00 | 69 | 1012.0 |
| 20260507120721 | 43 | 296 | 0.0 | 0.0 | 0.00 | 0.00 | 0.00 | 69 | 1011.7 |
| 20260507120218 | 43 | 294 | 1.0 | 1.0 | 0.00 | 0.00 | 0.00 | 68 | 1011.8 |
| 20260507115714 | 43 | 292 | 2.0 | 2.0 | 0.00 | 0.00 | 0.00 | 68 | 1012.0 |
| 20260507115210 | 43 | 293 | 2.0 | 2.0 | 0.00 | 0.00 | 0.00 | 68 | 1011.9 |
| 20260507114706 | 42 | 289 | 1.0 | 1.0 | 0.00 | 0.00 | 0.00 | 68 | 1011.7 |
| 20260507114203 | 42 | 288 | 1.0 | 1.0 | 0.00 | 0.00 | 0.00 | 68 | 1011.7 |
| 20260507113701 | 42 | 286 | 1.0 | 1.0 | 0.00 | 0.00 | 0.00 | 68 | 1011.9 |
| 20260507113157 | 42 | 282 | 1.0 | 1.0 | 0.00 | 0.00 | 0.00 | 67 | 1011.5 |
| 20260507112655 | 42 | 281 | 2.0 | 3.0 | 0.00 | 0.00 | 0.00 | 67 | 1011.8 |
| 20260507112152 | 42 | 280 | 1.0 | 1.0 | 0.00 | 0.00 | 0.00 | 67 | 1011.7 |
| 20260507111649 | 42 | 276 | 1.0 | 1.0 | 0.00 | 0.00 | 0.00 | 66 | 1011.6 |
| 20260507111146 | 42 | 273 | 1.0 | 1.0 | 0.00 | 0.00 | 0.00 | 65 | 1011.6 |
| 20260507110642 | 42 | 275 | 2.0 | 2.0 | 0.00 | 0.00 | 0.00 | 65 | 1011.6 |
| 20260507110138 | 42 | 275 | 3.0 | 3.0 | 0.00 | 0.00 | 0.00 | 65 | 1011.6 |
| 20260507105635 | 42 | 275 | 1.0 | 2.0 | 0.00 | 0.00 | 0.00 | 64 | 1011.7 |
| 20260507105131 | 42 | 279 | 0.0 | 1.0 | 0.00 | 0.00 | 0.00 | 65 | 1011.8 |
| 20260507104629 | 42 | 276 | 2.0 | 2.0 | 0.00 | 0.00 | 0.00 | 64 | 1011.7 |
| 20260507104125 | 42 | 278 | 1.0 | 1.0 | 0.00 | 0.00 | 0.00 | 64 | 1011.9 |
| 20260507103621 | 42 | 294 | 1.0 | 2.0 | 0.00 | 0.00 | 0.00 | 64 | 1011.8 |
| 20260507103118 | 42 | 297 | 1.0 | 1.0 | 0.00 | 0.00 | 0.00 | 66 | 1011.8 |
| 20260507102615 | 42 | 320 | 1.0 | 1.0 | 0.00 | 0.00 | 0.00 | 68 | 1011.9 |
| 20260507102111 | 42 | 320 | 2.0 | 2.0 | 0.00 | 0.00 | 0.00 | 68 | 1011.9 |
| 20260507101607 | 42 | 321 | 0.0 | 1.0 | 0.00 | 0.00 | 0.00 | 68 | 1011.9 |
| 20260507101103 | 42 | 321 | 0.0 | 1.0 | 0.00 | 0.00 | 0.00 | 68 | 1011.8 |
| 20260507100600 | 42 | 320 | 1.0 | 1.0 | 0.00 | 0.00 | 0.00 | 68 | 1012.0 |
| 20260507100058 | 42 | 320 | 1.0 | 1.0 | 0.00 | 0.00 | 0.00 | 68 | 1012.0 |
| 20260507095556 | 42 | 319 | 1.0 | 1.0 | 0.00 | 0.00 | 0.00 | 68 | 1012.0 |
| 20260507095053 | 41 | 319 | 0.0 | 0.0 | 0.00 | 0.00 | 0.00 | 69 | 1012.1 |
| 20260507094548 | 42 | 319 | 0.0 | 0.0 | 0.00 | 0.00 | 0.00 | 68 | 1012.1 |
| 20260507094046 | 42 | 319 | 0.0 | 0.0 | 0.00 | 0.00 | 0.00 | 67 | 1012.2 |
| 20260507093543 | 42 | 319 | 0.0 | 1.0 | 0.00 | 0.00 | 0.00 | 66 | 1012.1 |
| 20260507093042 | 42 | 318 | 0.0 | 1.0 | 0.00 | 0.00 | 0.00 | 66 | 1012.2 |
| 20260507092538 | 42 | 318 | 1.0 | 1.0 | 0.00 | 0.00 | 0.00 | 65 | 1012.2 |
| 20260507092035 | 42 | 317 | 0.0 | 1.0 | 0.00 | 0.00 | 0.00 | 65 | 1012.1 |
| 20260507091531 | 43 | 317 | 0.0 | 1.0 | 0.00 | 0.00 | 0.00 | 64 | 1012.3 |
| 20260507091028 | 43 | 315 | 0.0 | 1.0 | 0.00 | 0.00 | 0.00 | 63 | 1012.4 |
| 20260507090523 | 43 | 313 | 0.0 | 0.0 | 0.00 | 0.00 | 0.00 | 62 | 1012.8 |
| 20260507090020 | 43 | 312 | 0.0 | 1.0 | 0.00 | 0.00 | 0.00 | 61 | 1012.6 |
| 20260507085518 | 44 | 311 | 1.0 | 1.0 | 0.00 | 0.00 | 0.00 | 61 | 1012.6 |
| 20260507085014 | 44 | 309 | 0.0 | 0.0 | 0.00 | 0.00 | 0.00 | 60 | 1013.0 |
| 20260507084511 | 44 | 308 | 1.0 | 1.0 | 0.00 | 0.00 | 0.00 | 59 | 1013.1 |
| 20260507084008 | 44 | 308 | 1.0 | 1.0 | 0.00 | 0.00 | 0.00 | 59 | 1013.2 |
| 20260507083504 | 44 | 308 | 0.0 | 0.0 | 0.00 | 0.00 | 0.00 | 59 | 1013.1 |
| 20260507083001 | 44 | 307 | 0.0 | 1.0 | 0.00 | 0.00 | 0.00 | 59 | 1013.4 |
| 20260507082457 | 44 | 309 | 0.0 | 0.0 | 0.00 | 0.00 | 0.00 | 60 | 1013.3 |
| 20260507081953 | 44 | 313 | 0.0 | 0.0 | 0.00 | 0.00 | 0.00 | 60 | 1013.5 |
| 20260507081450 | 44 | 318 | 0.0 | 1.0 | 0.00 | 0.00 | 0.00 | 60 | 1013.4 |
| 20260507080947 | 44 | 326 | 0.0 | 0.0 | 0.00 | 0.00 | 0.00 | 59 | 1013.4 |
| 20260507080443 | 43 | 326 | 0.0 | 1.0 | 0.00 | 0.00 | 0.00 | 59 | 1013.4 |
| 20260507075938 | 43 | 326 | 0.0 | 0.0 | 0.00 | 0.00 | 0.00 | 59 | 1013.3 |
| 20260507075435 | 43 | 326 | 0.0 | 0.0 | 0.00 | 0.00 | 0.00 | 60 | 1013.4 |
| 20260507074931 | 42 | 326 | 0.0 | 1.0 | 0.00 | 0.00 | 0.00 | 61 | 1013.3 |
| 20260507074428 | 42 | 326 | 1.0 | 1.0 | 0.00 | 0.00 | 0.00 | 63 | 1013.7 |
| 20260507073926 | 42 | 326 | 0.0 | 1.0 | 0.00 | 0.00 | 0.00 | 63 | 1013.6 |
| 20260507073422 | 42 | 326 | 0.0 | 0.0 | 0.00 | 0.00 | 0.00 | 64 | 1013.8 |
| 20260507072919 | 42 | 326 | 0.0 | 0.0 | 0.00 | 0.00 | 0.00 | 63 | 1013.7 |
| 20260507072417 | 42 | 325 | 0.0 | 0.0 | 0.00 | 0.00 | 0.00 | 64 | 1013.9 |
| 20260507071915 | 42 | 325 | 1.0 | 1.0 | 0.00 | 0.00 | 0.00 | 63 | 1013.8 |
| 20260507071411 | 42 | 325 | 0.0 | 0.0 | 0.00 | 0.00 | 0.00 | 64 | 1014.0 |
| 20260507070907 | 42 | 325 | 1.0 | 1.0 | 0.00 | 0.00 | 0.00 | 64 | 1014.2 |
| 20260507070405 | 42 | 325 | 1.0 | 1.0 | 0.00 | 0.00 | 0.00 | 64 | 1014.0 |
| 20260507065901 | 42 | 325 | 1.0 | 1.0 | 0.00 | 0.00 | 0.00 | 65 | 1014.0 |
| 20260507065358 | 41 | 325 | 1.0 | 1.0 | 0.00 | 0.00 | 0.00 | 65 | 1014.3 |
| 20260507064855 | 41 | 325 | 0.0 | 0.0 | 0.00 | 0.00 | 0.00 | 66 | 1014.2 |
| 20260507064353 | 41 | 324 | 0.0 | 1.0 | 0.00 | 0.00 | 0.00 | 67 | 1014.2 |
| 20260507063851 | 41 | 324 | 0.0 | 1.0 | 0.00 | 0.00 | 0.00 | 67 | 1014.2 |
| 20260507063348 | 41 | 324 | 0.0 | 0.0 | 0.00 | 0.00 | 0.00 | 66 | 1014.3 |
| 20260507062845 | 41 | 324 | 0.0 | 0.0 | 0.00 | 0.00 | 0.00 | 66 | 1014.1 |
| 20260507062341 | 41 | 324 | 0.0 | 0.0 | 0.00 | 0.00 | 0.00 | 65 | 1014.4 |
| 20260507061839 | 41 | 324 | 1.0 | 1.0 | 0.00 | 0.00 | 0.00 | 65 | 1014.4 |
| 20260507061337 | 41 | 324 | 0.0 | 0.0 | 0.00 | 0.00 | 0.00 | 65 | 1014.3 |
| 20260507060835 | 41 | 324 | 1.0 | 1.0 | 0.00 | 0.00 | 0.00 | 66 | 1014.4 |
| 20260507060332 | 41 | 323 | 0.0 | 1.0 | 0.00 | 0.00 | 0.00 | 66 | 1014.4 |
| 20260507055828 | 41 | 322 | 1.0 | 1.0 | 0.00 | 0.00 | 0.00 | 66 | 1014.4 |
| 20260507055323 | 41 | 321 | 0.0 | 1.0 | 0.00 | 0.00 | 0.00 | 68 | 1014.4 |
| 20260507054820 | 41 | 321 | 1.0 | 1.0 | 0.00 | 0.00 | 0.00 | 68 | 1014.7 |
| 20260507054316 | 41 | 321 | 0.0 | 1.0 | 0.00 | 0.00 | 0.00 | 68 | 1014.9 |
| 20260507053814 | 41 | 320 | 1.0 | 1.0 | 0.00 | 0.00 | 0.00 | 68 | 1014.7 |
| 20260507053312 | 41 | 319 | 1.0 | 1.0 | 0.00 | 0.00 | 0.00 | 68 | 1014.9 |
| 20260507052811 | 41 | 319 | 0.0 | 1.0 | 0.00 | 0.00 | 0.00 | 68 | 1015.0 |
| 20260507052307 | 41 | 319 | 0.0 | 0.0 | 0.00 | 0.00 | 0.00 | 67 | 1014.7 |
| 20260507051805 | 41 | 319 | 0.0 | 1.0 | 0.00 | 0.00 | 0.00 | 68 | 1014.5 |
| 20260507051302 | 41 | 319 | 0.0 | 1.0 | 0.00 | 0.00 | 0.00 | 69 | 1014.7 |
| 20260507050759 | 40 | 319 | 1.0 | 1.0 | 0.00 | 0.00 | 0.00 | 71 | 1014.8 |
| 20260507050255 | 40 | 319 | 1.0 | 1.0 | 0.00 | 0.00 | 0.00 | 73 | 1014.7 |
| 20260507045752 | 40 | 319 | 0.0 | 0.0 | 0.00 | 0.00 | 0.00 | 73 | 1014.8 |
| 20260507045249 | 39 | 319 | 0.0 | 1.0 | 0.00 | 0.00 | 0.00 | 75 | 1014.5 |
| 20260507044746 | 39 | 319 | 0.0 | 0.0 | 0.00 | 0.00 | 0.00 | 78 | 1014.8 |
| 20260507044242 | 39 | 319 | 0.0 | 0.0 | 0.00 | 0.00 | 0.00 | 79 | 1014.9 |
| 20260507043738 | 39 | 319 | 0.0 | 0.0 | 0.00 | 0.00 | 0.00 | 80 | 1014.9 |
| 20260507043235 | 40 | 319 | 0.0 | 0.0 | 0.00 | 0.00 | 0.00 | 76 | 1015.0 |
| 20260507042731 | 40 | 319 | 0.0 | 0.0 | 0.00 | 0.00 | 0.00 | 73 | 1015.1 |
| 20260507042226 | 40 | 319 | 0.0 | 0.0 | 0.00 | 0.00 | 0.00 | 77 | 1015.1 |